| time (UTC) | temp F | wind direction | speed MPH | gust MPH | rain 1hr in | rain 24hr in | rain mn in | humidity % | barometer mb |
| 20260507163004 | 72 | 338 | 0.0 | 0.0 | 0.00 | 0.00 | 0.00 | 57 | 1010.4 |
| 20260507162505 | 70 | 8 | 0.0 | 6.0 | 0.00 | 0.00 | 0.00 | 59 | 1010.5 |
| 20260507161505 | 68 | 348 | 1.0 | 7.0 | 0.00 | 0.00 | 0.00 | 61 | 1010.7 |
| 20260507161005 | 68 | 45 | 0.0 | 0.0 | 0.00 | 0.00 | 0.00 | 60 | 1010.7 |
| 20260507160504 | 68 | 45 | 0.0 | 0.0 | 0.00 | 0.00 | 0.00 | 62 | 1010.6 |
| 20260507160005 | 67 | 0 | 0.0 | 0.0 | 0.00 | 0.00 | 0.00 | 63 | 1010.6 |
| 20260507155505 | 67 | 0 | 0.0 | 6.0 | 0.00 | 0.00 | 0.00 | 63 | 1010.6 |
| 20260507154505 | 68 | 338 | 0.0 | 6.0 | 0.00 | 0.00 | 0.00 | 62 | 1010.8 |
| 20260507154006 | 69 | 338 | 1.0 | 6.0 | 0.00 | 0.00 | 0.00 | 63 | 1011.0 |
| 20260507152004 | 68 | 338 | 0.0 | 0.0 | 0.00 | 0.00 | 0.00 | 66 | 1011.0 |
| 20260507151505 | 67 | 338 | 0.0 | 0.0 | 0.00 | 0.00 | 0.00 | 66 | 1011.0 |
| 20260507151005 | 67 | 338 | 2.0 | 8.0 | 0.00 | 0.00 | 0.00 | 66 | 1011.0 |
| 20260507150505 | 67 | 339 | 3.0 | 9.0 | 0.00 | 0.00 | 0.00 | 67 | 1011.2 |
| 20260507150005 | 66 | 339 | 1.0 | 7.0 | 0.00 | 0.00 | 0.00 | 69 | 1011.1 |
| 20260507145504 | 65 | 338 | 0.0 | 0.0 | 0.00 | 0.00 | 0.00 | 69 | 1011.3 |
| 20260507144505 | 65 | 338 | 1.0 | 6.0 | 0.00 | 0.00 | 0.00 | 69 | 1011.1 |
| 20260507143504 | 66 | 356 | 1.0 | 7.0 | 0.00 | 0.00 | 0.00 | 70 | 1011.2 |
| 20260507143005 | 66 | 357 | 4.0 | 8.0 | 0.00 | 0.00 | 0.00 | 71 | 1011.3 |
| 20260507141505 | 64 | 355 | 0.0 | 0.0 | 0.00 | 0.00 | 0.00 | 76 | 1011.5 |
| 20260507141006 | 62 | 338 | 0.0 | 0.0 | 0.00 | 0.00 | 0.00 | 76 | 1011.3 |
| 20260507140505 | 62 | 338 | 0.0 | 8.0 | 0.00 | 0.00 | 0.00 | 76 | 1011.6 |
| 20260507140005 | 62 | 338 | 1.0 | 7.0 | 0.00 | 0.00 | 0.00 | 77 | 1011.7 |
| 20260507135504 | 62 | 357 | 2.0 | 10.0 | 0.00 | 0.00 | 0.00 | 78 | 1011.7 |
| 20260507135005 | 62 | 0 | 0.0 | 2.0 | 0.00 | 0.00 | 0.00 | 80 | 1011.8 |
| 20260507134505 | 61 | 0 | 0.0 | 0.0 | 0.00 | 0.00 | 0.00 | 80 | 1011.8 |
| 20260507134005 | 61 | 343 | 0.0 | 7.0 | 0.00 | 0.00 | 0.00 | 82 | 1011.8 |
| 20260507133005 | 59 | 338 | 0.0 | 6.0 | 0.00 | 0.00 | 0.00 | 84 | 1011.8 |
| 20260507132004 | 58 | 338 | 1.0 | 6.0 | 0.00 | 0.00 | 0.00 | 85 | 1011.7 |
| 20260507131504 | 58 | 0 | 0.0 | 2.0 | 0.00 | 0.00 | 0.00 | 85 | 1011.6 |
| 20260507130505 | 58 | 338 | 0.0 | 0.0 | 0.00 | 0.00 | 0.00 | 86 | 1011.5 |
| 20260507130005 | 58 | 338 | 0.0 | 0.0 | 0.00 | 0.00 | 0.00 | 86 | 1011.6 |
| 20260507125004 | 58 | 338 | 0.0 | 0.0 | 0.00 | 0.00 | 0.00 | 87 | 1011.6 |
| 20260507124504 | 58 | 338 | 0.0 | 0.0 | 0.00 | 0.00 | 0.00 | 88 | 1011.6 |
| 20260507123504 | 57 | 338 | 0.0 | 0.0 | 0.00 | 0.00 | 0.00 | 90 | 1011.6 |
| 20260507122505 | 56 | 338 | 0.0 | 0.0 | 0.00 | 0.00 | 0.00 | 91 | 1011.7 |
| 20260507122006 | 55 | 338 | 0.0 | 0.0 | 0.00 | 0.00 | 0.00 | 91 | 1011.5 |
| 20260507121505 | 55 | 338 | 0.0 | 0.0 | 0.00 | 0.00 | 0.00 | 91 | 1011.4 |
| 20260507121005 | 55 | 338 | 0.0 | 0.0 | 0.00 | 0.00 | 0.00 | 92 | 1011.6 |
| 20260507120505 | 55 | 338 | 0.0 | 3.0 | 0.00 | 0.00 | 0.00 | 92 | 1011.4 |
| 20260507120005 | 55 | 0 | 0.0 | 0.0 | 0.00 | 0.00 | 0.00 | 92 | 1011.5 |
| 20260507115508 | 55 | 338 | 0.0 | 0.0 | 0.00 | 0.00 | 0.00 | 93 | 1011.4 |
| 20260507115005 | 55 | 338 | 0.0 | 0.0 | 0.00 | 0.00 | 0.00 | 93 | 1011.4 |
| 20260507114504 | 54 | 338 | 0.0 | 0.0 | 0.00 | 0.00 | 0.00 | 93 | 1011.4 |
| 20260507114005 | 54 | 338 | 0.0 | 0.0 | 0.00 | 0.00 | 0.00 | 94 | 1011.3 |
| 20260507113505 | 53 | 338 | 1.0 | 3.0 | 0.00 | 0.00 | 0.00 | 94 | 1011.3 |
| 20260507113006 | 53 | 0 | 0.0 | 0.0 | 0.00 | 0.00 | 0.00 | 95 | 1011.3 |
| 20260507112504 | 53 | 338 | 0.0 | 0.0 | 0.00 | 0.00 | 0.00 | 95 | 1011.4 |
| 20260507111506 | 52 | 338 | 0.0 | 0.0 | 0.00 | 0.00 | 0.00 | 95 | 1011.1 |
| 20260507111005 | 52 | 338 | 0.0 | 0.0 | 0.00 | 0.00 | 0.00 | 96 | 1011.2 |
| 20260507110505 | 52 | 338 | 0.0 | 0.0 | 0.00 | 0.00 | 0.00 | 96 | 1011.2 |
| 20260507110005 | 52 | 338 | 0.0 | 0.0 | 0.00 | 0.00 | 0.00 | 96 | 1011.1 |
| 20260507105005 | 51 | 338 | 0.0 | 0.0 | 0.00 | 0.00 | 0.00 | 96 | 1010.8 |
| 20260507104005 | 51 | 338 | 0.0 | 0.0 | 0.00 | 0.00 | 0.00 | 96 | 1010.8 |
| 20260507103504 | 51 | 338 | 0.0 | 0.0 | 0.00 | 0.00 | 0.00 | 96 | 1010.7 |
| 20260507103004 | 50 | 338 | 0.0 | 0.0 | 0.00 | 0.00 | 0.00 | 96 | 1011.0 |
| 20260507102505 | 50 | 338 | 0.0 | 0.0 | 0.00 | 0.00 | 0.00 | 96 | 1010.9 |
| 20260507101506 | 50 | 338 | 0.0 | 0.0 | 0.00 | 0.00 | 0.00 | 96 | 1010.7 |
| 20260507101004 | 50 | 338 | 0.0 | 0.0 | 0.00 | 0.00 | 0.00 | 96 | 1010.6 |
| 20260507100505 | 50 | 338 | 0.0 | 0.0 | 0.00 | 0.00 | 0.00 | 96 | 1010.6 |
| 20260507100005 | 50 | 338 | 0.0 | 0.0 | 0.00 | 0.00 | 0.00 | 96 | 1010.6 |
| 20260507095504 | 50 | 349 | 0.0 | 0.0 | 0.00 | 0.00 | 0.00 | 96 | 1010.6 |
| 20260507094005 | 50 | 338 | 0.0 | 0.0 | 0.00 | 0.00 | 0.00 | 96 | 1010.3 |
| 20260507093504 | 50 | 0 | 0.0 | 2.0 | 0.00 | 0.00 | 0.00 | 96 | 1010.4 |
| 20260507092504 | 50 | 0 | 0.0 | 0.0 | 0.00 | 0.00 | 0.00 | 96 | 1010.3 |
| 20260507092004 | 50 | 0 | 0.0 | 3.0 | 0.00 | 0.00 | 0.00 | 96 | 1010.4 |
| 20260507091504 | 50 | 0 | 0.0 | 0.0 | 0.00 | 0.00 | 0.00 | 96 | 1010.3 |
| 20260507091005 | 50 | 0 | 0.0 | 1.0 | 0.00 | 0.00 | 0.00 | 96 | 1010.4 |
| 20260507090006 | 50 | 338 | 2.0 | 6.0 | 0.00 | 0.00 | 0.00 | 96 | 1010.0 |
| 20260507085505 | 50 | 344 | 1.0 | 7.0 | 0.00 | 0.00 | 0.00 | 96 | 1009.8 |
| 20260507085004 | 50 | 0 | 1.0 | 5.0 | 0.00 | 0.00 | 0.00 | 96 | 1010.1 |
| 20260507084505 | 50 | 0 | 3.0 | 7.0 | 0.00 | 0.00 | 0.00 | 96 | 1010.1 |
| 20260507084004 | 50 | 0 | 3.0 | 9.0 | 0.00 | 0.00 | 0.00 | 96 | 1009.9 |
| 20260507083505 | 50 | 0 | 1.0 | 7.0 | 0.00 | 0.00 | 0.00 | 96 | 1009.7 |
| 20260507083005 | 50 | 338 | 3.0 | 6.0 | 0.00 | 0.00 | 0.00 | 96 | 1009.9 |
| 20260507082504 | 50 | 343 | 3.0 | 8.0 | 0.00 | 0.00 | 0.00 | 96 | 1009.9 |
| 20260507082004 | 50 | 338 | 1.0 | 7.0 | 0.00 | 0.00 | 0.00 | 96 | 1009.8 |
| 20260507081504 | 50 | 338 | 2.0 | 8.0 | 0.00 | 0.00 | 0.00 | 96 | 1009.8 |
| 20260507081005 | 50 | 339 | 2.0 | 9.0 | 0.00 | 0.00 | 0.00 | 96 | 1009.9 |
| 20260507080504 | 51 | 338 | 2.0 | 12.0 | 0.00 | 0.00 | 0.00 | 97 | 1009.9 |
| 20260507080005 | 51 | 354 | 2.0 | 12.0 | 0.00 | 0.00 | 0.00 | 97 | 1009.8 |
| 20260507075004 | 51 | 339 | 2.0 | 9.0 | 0.00 | 0.00 | 0.00 | 97 | 1009.8 |
| 20260507074505 | 51 | 348 | 4.0 | 12.0 | 0.00 | 0.00 | 0.00 | 97 | 1009.8 |
| 20260507073004 | 52 | 338 | 9.0 | 12.0 | 0.00 | 0.00 | 0.00 | 97 | 1009.6 |
| 20260507072505 | 52 | 353 | 3.0 | 10.0 | 0.00 | 0.00 | 0.00 | 96 | 1009.4 |
| 20260507072005 | 52 | 351 | 8.0 | 16.0 | 0.00 | 0.00 | 0.00 | 96 | 1009.3 |
| 20260507071504 | 53 | 344 | 5.0 | 12.0 | 0.00 | 0.00 | 0.00 | 96 | 1009.1 |
| 20260507071004 | 53 | 346 | 3.0 | 12.0 | 0.00 | 0.00 | 0.00 | 96 | 1009.4 |
| 20260507070504 | 53 | 338 | 3.0 | 8.0 | 0.00 | 0.00 | 0.00 | 95 | 1009.5 |
| 20260507070009 | 53 | 0 | 2.0 | 9.0 | 0.00 | 0.00 | 0.00 | 95 | 1009.5 |
| 20260507065004 | 54 | 338 | 5.0 | 12.0 | 0.00 | 0.00 | 0.00 | 95 | 1009.6 |
| 20260507064504 | 54 | 338 | 0.0 | 3.0 | 0.00 | 0.00 | 0.00 | 94 | 1009.5 |
| 20260507064005 | 55 | 22 | 3.0 | 7.0 | 0.00 | 0.00 | 0.00 | 94 | 1009.1 |
| 20260507063505 | 55 | 345 | 2.0 | 10.0 | 0.00 | 0.00 | 0.00 | 94 | 1009.2 |
| 20260507062504 | 56 | 0 | 0.0 | 7.0 | 0.00 | 0.00 | 0.00 | 92 | 1010.1 |
| 20260507062004 | 57 | 346 | 6.0 | 14.0 | 0.00 | 0.00 | 0.00 | 92 | 1009.1 |
| 20260507061505 | 58 | 323 | 6.0 | 18.0 | 0.00 | 0.00 | 0.00 | 92 | 1008.8 |
| 20260507061005 | 58 | 338 | 6.0 | 8.0 | 0.00 | 0.00 | 0.00 | 91 | 1008.8 |
| 20260507060504 | 59 | 321 | 2.0 | 10.0 | 0.00 | 0.00 | 0.00 | 91 | 1008.9 |
| 20260507060004 | 60 | 351 | 6.0 | 15.0 | 0.00 | 0.00 | 0.00 | 90 | 1008.8 |
| 20260507055504 | 61 | 346 | 5.0 | 18.0 | 0.00 | 0.00 | 0.00 | 90 | 1009.0 |
| 20260507055004 | 62 | 334 | 5.0 | 13.0 | 0.00 | 0.00 | 0.00 | 89 | 1009.0 |
| 20260507054504 | 62 | 338 | 0.0 | 0.0 | 0.00 | 0.00 | 0.00 | 88 | 1008.8 |
| 20260507054005 | 63 | 338 | 0.0 | 5.0 | 0.00 | 0.00 | 0.00 | 87 | 1008.5 |
| 20260507053504 | 64 | 338 | 0.0 | 0.0 | 0.00 | 0.00 | 0.00 | 86 | 1008.5 |
| 20260507052504 | 64 | 0 | 0.0 | 3.0 | 0.00 | 0.00 | 0.00 | 87 | 1008.4 |
| 20260507051005 | 65 | 338 | 0.0 | 0.0 | 0.00 | 0.00 | 0.00 | 89 | 1008.1 |
| 20260507050505 | 65 | 338 | 0.0 | 0.0 | 0.00 | 0.00 | 0.00 | 89 | 1008.1 |
| 20260507050005 | 65 | 338 | 0.0 | 5.0 | 0.00 | 0.00 | 0.00 | 89 | 1008.1 |
| 20260507045504 | 65 | 337 | 0.0 | 0.0 | 0.00 | 0.00 | 0.00 | 89 | 1008.2 |
| 20260507045005 | 65 | 270 | 0.0 | 0.0 | 0.00 | 0.00 | 0.00 | 89 | 1008.5 |
| 20260507044504 | 65 | 269 | 0.0 | 0.0 | 0.00 | 0.00 | 0.00 | 89 | 1008.5 |
| 20260507044004 | 65 | 158 | 0.0 | 0.0 | 0.00 | 0.00 | 0.00 | 89 | 1008.5 |
| 20260507043004 | 65 | 158 | 0.0 | 0.0 | 0.00 | 0.00 | 0.00 | 89 | 1008.4 |
| 20260507042504 | 65 | 158 | 0.0 | 0.0 | 0.00 | 0.00 | 0.00 | 89 | 1008.4 |
| 20260507042004 | 65 | 180 | 0.0 | 0.0 | 0.00 | 0.00 | 0.00 | 89 | 1008.4 |
| 20260507041005 | 65 | 202 | 0.0 | 0.0 | 0.00 | 0.00 | 0.00 | 89 | 1008.6 |
| 20260507040004 | 65 | 180 | 0.0 | 0.0 | 0.00 | 0.00 | 0.00 | 89 | 1008.3 |
| 20260507035504 | 65 | 205 | 0.0 | 0.0 | 0.00 | 0.00 | 0.00 | 89 | 1008.4 |
| 20260507035004 | 65 | 209 | 0.0 | 0.0 | 0.00 | 0.00 | 0.00 | 89 | 1008.5 |
| 20260507034004 | 65 | 202 | 0.0 | 0.0 | 0.00 | 0.00 | 0.00 | 89 | 1008.4 |
| 20260507033505 | 65 | 202 | 0.0 | 0.0 | 0.00 | 0.00 | 0.00 | 88 | 1008.4 |
| 20260507033005 | 65 | 225 | 0.0 | 0.0 | 0.00 | 0.00 | 0.00 | 88 | 1008.2 |
| 20260507032504 | 65 | 225 | 0.0 | 0.0 | 0.00 | 0.00 | 0.00 | 88 | 1008.2 |
| 20260507032005 | 65 | 225 | 0.0 | 0.0 | 0.00 | 0.00 | 0.00 | 88 | 1008.2 |
| 20260507031504 | 65 | 225 | 0.0 | 0.0 | 0.00 | 0.00 | 0.00 | 88 | 1008.0 |
| 20260507031004 | 65 | 202 | 0.0 | 3.0 | 0.00 | 0.00 | 0.00 | 89 | 1008.2 |
| 20260507030004 | 65 | 248 | 0.0 | 0.0 | 0.00 | 0.00 | 0.00 | 88 | 1008.4 |
| 20260507025504 | 65 | 195 | 0.0 | 2.0 | 0.00 | 0.00 | 0.00 | 88 | 1008.3 |
| 20260507025004 | 65 | 220 | 0.0 | 0.0 | 0.00 | 0.00 | 0.00 | 88 | 1008.4 |
| 20260507023504 | 66 | 195 | 0.0 | 0.0 | 0.00 | 0.00 | 0.00 | 88 | 1008.5 |
| 20260507023005 | 66 | 195 | 1.0 | 7.0 | 0.00 | 0.00 | 0.00 | 88 | 1008.5 |
| 20260507022504 | 66 | 219 | 1.0 | 9.0 | 0.00 | 0.00 | 0.00 | 88 | 1008.8 |
| 20260507022004 | 66 | 222 | 0.0 | 3.0 | 0.00 | 0.00 | 0.00 | 87 | 1008.9 |
| 20260507021505 | 66 | 214 | 2.0 | 7.0 | 0.00 | 0.00 | 0.00 | 87 | 1008.9 |
| 20260507021006 | 66 | 232 | 0.0 | 3.0 | 0.00 | 0.00 | 0.00 | 87 | 1008.9 |
| 20260507020504 | 66 | 219 | 1.0 | 3.0 | 0.00 | 0.00 | 0.00 | 87 | 1008.9 |
| 20260507020004 | 66 | 201 | 0.0 | 1.0 | 0.00 | 0.00 | 0.00 | 87 | 1008.9 |
| 20260507015504 | 66 | 214 | 0.0 | 3.0 | 0.00 | 0.00 | 0.00 | 87 | 1008.8 |
| 20260507015004 | 66 | 225 | 0.0 | 7.0 | 0.00 | 0.00 | 0.00 | 87 | 1008.9 |
| 20260507014503 | 66 | 218 | 2.0 | 6.0 | 0.00 | 0.00 | 0.00 | 87 | 1008.7 |
| 20260507014004 | 66 | 225 | 0.0 | 2.0 | 0.00 | 0.00 | 0.00 | 87 | 1008.7 |
| 20260507013504 | 66 | 225 | 1.0 | 3.0 | 0.00 | 0.00 | 0.00 | 87 | 1008.7 |
| 20260507013004 | 66 | 225 | 0.0 | 6.0 | 0.00 | 0.00 | 0.00 | 87 | 1008.8 |
| 20260507012505 | 66 | 218 | 1.0 | 3.0 | 0.00 | 0.00 | 0.00 | 87 | 1008.7 |
| 20260507011504 | 66 | 198 | 5.0 | 10.0 | 0.00 | 0.00 | 0.00 | 87 | 1008.9 |
| 20260507011004 | 66 | 236 | 1.0 | 6.0 | 0.00 | 0.00 | 0.00 | 86 | 1008.8 |
| 20260507010504 | 66 | 219 | 1.0 | 2.0 | 0.00 | 0.00 | 0.00 | 86 | 1008.9 |
| 20260507010004 | 66 | 220 | 0.0 | 0.0 | 0.00 | 0.00 | 0.00 | 86 | 1008.9 |
| 20260507005505 | 66 | 221 | 0.0 | 2.0 | 0.00 | 0.00 | 0.00 | 86 | 1008.8 |
| 20260507005004 | 65 | 193 | 1.0 | 3.0 | 0.00 | 0.00 | 0.00 | 86 | 1008.9 |
| 20260507004504 | 65 | 215 | 0.0 | 0.0 | 0.00 | 0.00 | 0.00 | 86 | 1008.9 |
| 20260507004004 | 65 | 225 | 0.0 | 0.0 | 0.00 | 0.00 | 0.00 | 85 | 1009.1 |
| 20260507003504 | 66 | 202 | 0.0 | 0.0 | 0.00 | 0.00 | 0.00 | 85 | 1008.8 |
| 20260507003004 | 66 | 202 | 0.0 | 3.0 | 0.00 | 0.00 | 0.00 | 85 | 1008.3 |
| 20260507002504 | 66 | 202 | 0.0 | 3.0 | 0.00 | 0.00 | 0.00 | 84 | 1008.3 |
| 20260507002005 | 66 | 215 | 0.0 | 0.0 | 0.00 | 0.00 | 0.00 | 84 | 1008.4 |
| 20260507001005 | 67 | 202 | 0.0 | 0.0 | 0.00 | 0.00 | 0.00 | 83 | 1008.2 |
| 20260507000005 | 67 | 202 | 0.0 | 0.0 | 0.00 | 0.00 | 0.00 | 82 | 1008.2 |
| 20260506235505 | 68 | 165 | 2.0 | 7.0 | 0.00 | 0.00 | 0.00 | 82 | 1008.3 |
| 20260506235006 | 68 | 186 | 1.0 | 6.0 | 0.00 | 0.00 | 0.00 | 82 | 1007.8 |
| 20260506234005 | 68 | 200 | 1.0 | 5.0 | 0.00 | 0.00 | 0.00 | 81 | 1008.0 |
| 20260506233505 | 69 | 216 | 2.0 | 12.0 | 0.00 | 0.00 | 0.00 | 80 | 1008.3 |
| 20260506233005 | 69 | 194 | 2.0 | 7.0 | 0.00 | 0.00 | 0.00 | 80 | 1008.3 |
| 20260506232005 | 69 | 214 | 5.0 | 13.0 | 0.00 | 0.00 | 0.00 | 79 | 1007.9 |
| 20260506231505 | 70 | 223 | 6.0 | 12.0 | 0.00 | 0.00 | 0.00 | 79 | 1008.0 |
| 20260506231006 | 70 | 218 | 0.0 | 9.0 | 0.00 | 0.00 | 0.00 | 78 | 1008.1 |
| 20260506230505 | 70 | 226 | 5.0 | 15.0 | 0.00 | 0.00 | 0.00 | 78 | 1008.2 |
| 20260506230005 | 70 | 209 | 2.0 | 14.0 | 0.00 | 0.00 | 0.00 | 77 | 1008.2 |
| 20260506225006 | 71 | 227 | 5.0 | 20.0 | 0.00 | 0.00 | 0.00 | 77 | 1008.4 |
| 20260506224506 | 71 | 220 | 4.0 | 14.0 | 0.00 | 0.00 | 0.00 | 77 | 1008.4 |
| 20260506223506 | 71 | 228 | 3.0 | 15.0 | 0.00 | 0.00 | 0.00 | 76 | 1008.0 |
| 20260506223005 | 71 | 226 | 1.0 | 5.0 | 0.00 | 0.00 | 0.00 | 76 | 1007.9 |
| 20260506222505 | 72 | 209 | 4.0 | 8.0 | 0.00 | 0.00 | 0.00 | 75 | 1007.9 |
| 20260506222006 | 72 | 233 | 4.0 | 8.0 | 0.00 | 0.00 | 0.00 | 75 | 1008.0 |
| 20260506221505 | 72 | 226 | 9.0 | 17.0 | 0.00 | 0.00 | 0.00 | 75 | 1007.8 |
| 20260506221005 | 72 | 223 | 7.0 | 14.0 | 0.00 | 0.00 | 0.00 | 75 | 1007.8 |
| 20260506220505 | 72 | 206 | 5.0 | 13.0 | 0.00 | 0.00 | 0.00 | 75 | 1007.9 |
| 20260506220005 | 72 | 211 | 7.0 | 14.0 | 0.00 | 0.00 | 0.00 | 75 | 1007.8 |
| 20260506215505 | 72 | 185 | 9.0 | 13.0 | 0.00 | 0.00 | 0.00 | 75 | 1007.9 |
| 20260506214505 | 72 | 225 | 10.0 | 14.0 | 0.00 | 0.00 | 0.00 | 75 | 1007.9 |
| 20260506214006 | 72 | 201 | 9.0 | 18.0 | 0.00 | 0.00 | 0.00 | 74 | 1007.9 |
| 20260506213005 | 72 | 203 | 3.0 | 8.0 | 0.00 | 0.00 | 0.00 | 74 | 1007.8 |
| 20260506212005 | 72 | 191 | 5.0 | 16.0 | 0.00 | 0.00 | 0.00 | 74 | 1007.7 |
| 20260506211505 | 72 | 214 | 7.0 | 12.0 | 0.00 | 0.00 | 0.00 | 74 | 1007.7 |
| 20260506211005 | 72 | 216 | 6.0 | 18.0 | 0.00 | 0.00 | 0.00 | 74 | 1007.7 |
| 20260506210505 | 72 | 192 | 10.0 | 17.0 | 0.00 | 0.00 | 0.00 | 73 | 1007.6 |
| 20260506210005 | 73 | 217 | 5.0 | 17.0 | 0.00 | 0.00 | 0.00 | 73 | 1007.6 |
| 20260506205006 | 73 | 228 | 9.0 | 16.0 | 0.00 | 0.00 | 0.00 | 73 | 1007.5 |
| 20260506204505 | 73 | 214 | 3.0 | 16.0 | 0.00 | 0.00 | 0.00 | 73 | 1007.4 |
| 20260506204005 | 73 | 228 | 6.0 | 15.0 | 0.00 | 0.00 | 0.00 | 73 | 1007.3 |
| 20260506203506 | 73 | 193 | 7.0 | 14.0 | 0.00 | 0.00 | 0.00 | 72 | 1007.4 |
| 20260506203005 | 74 | 214 | 6.0 | 16.0 | 0.00 | 0.00 | 0.00 | 72 | 1007.5 |
| 20260506202505 | 74 | 222 | 1.0 | 15.0 | 0.00 | 0.00 | 0.00 | 72 | 1007.4 |
| 20260506202005 | 74 | 206 | 2.0 | 8.0 | 0.00 | 0.00 | 0.00 | 72 | 1007.4 |
| 20260506201005 | 74 | 207 | 10.0 | 17.0 | 0.00 | 0.00 | 0.00 | 71 | 1007.5 |
| 20260506200505 | 74 | 220 | 8.0 | 20.0 | 0.00 | 0.00 | 0.00 | 72 | 1007.6 |
| 20260506200005 | 73 | 197 | 3.0 | 12.0 | 0.00 | 0.00 | 0.00 | 74 | 1007.6 |
| 20260506195505 | 73 | 234 | 6.0 | 15.0 | 0.00 | 0.00 | 0.00 | 73 | 1007.7 |
| 20260506195005 | 73 | 222 | 1.0 | 18.0 | 0.00 | 0.00 | 0.00 | 74 | 1007.8 |
| 20260506194505 | 72 | 207 | 12.0 | 17.0 | 0.00 | 0.00 | 0.00 | 74 | 1007.8 |
| 20260506193005 | 69 | 216 | 4.0 | 15.0 | 0.00 | 0.00 | 0.00 | 78 | 1008.2 |
| 20260506192505 | 69 | 209 | 9.0 | 18.0 | 0.00 | 0.00 | 0.00 | 78 | 1008.3 |
| 20260506192005 | 69 | 222 | 11.0 | 17.0 | 0.00 | 0.00 | 0.00 | 78 | 1008.6 |
| 20260506191505 | 69 | 222 | 5.0 | 16.0 | 0.00 | 0.00 | 0.00 | 78 | 1008.3 |
| 20260506191005 | 70 | 212 | 13.0 | 29.0 | 0.00 | 0.00 | 0.00 | 77 | 1008.4 |
| 20260506190505 | 70 | 232 | 9.0 | 29.0 | 0.00 | 0.00 | 0.00 | 78 | 1008.3 |
| 20260506190006 | 70 | 209 | 5.0 | 23.0 | 0.00 | 0.00 | 0.00 | 78 | 1008.2 |
| 20260506185505 | 70 | 232 | 12.0 | 16.0 | 0.00 | 0.00 | 0.00 | 79 | 1008.2 |
| 20260506185005 | 70 | 205 | 7.0 | 17.0 | 0.00 | 0.00 | 0.00 | 79 | 1008.2 |
| 20260506184505 | 69 | 225 | 10.0 | 20.0 | 0.00 | 0.00 | 0.00 | 80 | 1008.5 |
| 20260506184005 | 69 | 226 | 13.0 | 15.0 | 0.00 | 0.00 | 0.00 | 80 | 1008.5 |
| 20260506183505 | 68 | 208 | 12.0 | 25.0 | 0.00 | 0.00 | 0.00 | 80 | 1008.7 |
| 20260506183006 | 69 | 227 | 9.0 | 25.0 | 0.00 | 0.00 | 0.00 | 80 | 1008.8 |
| 20260506182505 | 69 | 204 | 12.0 | 25.0 | 0.00 | 0.00 | 0.00 | 79 | 1008.8 |
| 20260506182005 | 69 | 202 | 10.0 | 18.0 | 0.00 | 0.00 | 0.00 | 79 | 1008.8 |
| 20260506181504 | 70 | 208 | 13.0 | 25.0 | 0.00 | 0.00 | 0.00 | 79 | 1008.8 |
| 20260506180505 | 69 | 213 | 8.0 | 15.0 | 0.00 | 0.00 | 0.00 | 83 | 1008.7 |
| 20260506180005 | 67 | 220 | 5.0 | 15.0 | 0.00 | 0.00 | 0.00 | 84 | 1008.7 |
| 20260506175005 | 67 | 186 | 7.0 | 21.0 | 0.00 | 0.00 | 0.00 | 82 | 1008.8 |
| 20260506174504 | 68 | 213 | 11.0 | 20.0 | 0.00 | 0.00 | 0.00 | 82 | 1008.8 |
| 20260506174005 | 67 | 204 | 4.0 | 20.0 | 0.00 | 0.00 | 0.00 | 82 | 1008.8 |
| 20260506173505 | 67 | 187 | 7.0 | 18.0 | 0.00 | 0.00 | 0.00 | 83 | 1008.8 |
| 20260506173005 | 66 | 209 | 5.0 | 20.0 | 0.00 | 0.00 | 0.00 | 83 | 1008.8 |
| 20260506172504 | 66 | 228 | 9.0 | 14.0 | 0.00 | 0.00 | 0.00 | 83 | 1009.0 |
| 20260506171505 | 66 | 209 | 7.0 | 14.0 | 0.00 | 0.00 | 0.00 | 84 | 1009.2 |
| 20260506171005 | 66 | 239 | 7.0 | 14.0 | 0.00 | 0.00 | 0.00 | 83 | 1009.2 |
| 20260506170505 | 67 | 194 | 6.0 | 12.0 | 0.00 | 0.00 | 0.00 | 82 | 1009.2 |
| 20260506170005 | 67 | 237 | 5.0 | 21.0 | 0.00 | 0.00 | 0.00 | 81 | 1009.4 |
| 20260506165505 | 68 | 204 | 6.0 | 14.0 | 0.00 | 0.00 | 0.00 | 79 | 1009.5 |
| 20260506165005 | 68 | 225 | 4.0 | 23.0 | 0.00 | 0.00 | 0.00 | 76 | 1009.5 |
| 20260506164504 | 70 | 215 | 13.0 | 23.0 | 0.00 | 0.00 | 0.00 | 74 | 1009.3 |